Time,TemperatureF,DewpointF,PressureIn,WindDirection,WindDirectionDegrees,WindSpeedMPH,WindSpeedGustMPH,Humidity,HourlyPrecipIn,Conditions,Clouds,dailyrainin,SoftwareType,DateUTC
2013-02-21 00:11:00,14.5,11.0,25.02,ESE,111,6.0,11.0,87,0.00,,,0.00,weatherlink.com 1.10,2013-02-21 07:11:00,
2013-02-21 00:26:00,14.4,11.0,25.02,ENE,66,5.0,8.0,87,0.00,,,0.00,weatherlink.com 1.10,2013-02-21 07:26:00,
2013-02-21 00:41:00,14.4,12.0,25.02,SE,124,0.0,9.0,88,0.00,,,0.00,weatherlink.com 1.10,2013-02-21 07:41:00,
2013-02-21 00:56:00,14.6,12.0,25.02,ESE,114,0.0,5.0,88,0.00,,,0.00,weatherlink.com 1.10,2013-02-21 07:56:00,
2013-02-21 01:11:00,14.5,12.0,25.02,ESE,121,1.0,4.0,88,0.00,,,0.00,weatherlink.com 1.10,2013-02-21 08:11:00,
2013-02-21 01:26:00,14.3,11.0,25.02,East,100,2.0,5.0,88,0.00,,,0.00,weatherlink.com 1.10,2013-02-21 08:26:00,
2013-02-21 01:41:00,14.1,11.0,25.02,ESE,109,1.0,9.0,87,0.00,,,0.00,weatherlink.com 1.10,2013-02-21 08:41:00,
2013-02-21 01:56:00,14.0,11.0,25.02,SE,124,1.0,5.0,88,0.00,,,0.00,weatherlink.com 1.10,2013-02-21 08:56:00,
2013-02-21 02:12:00,13.9,11.0,25.01,ESE,115,1.0,3.0,88,0.00,,,0.00,weatherlink.com 1.10,2013-02-21 09:12:00,
2013-02-21 02:27:00,13.8,11.0,25.01,ENE,77,7.0,7.0,89,0.00,,,0.00,weatherlink.com 1.10,2013-02-21 09:27:00,
2013-02-21 06:55:00,13.6,11.0,25.04,NE,46,1.0,2.0,89,0.00,,,0.00,weatherlink.com 1.10,2013-02-21 13:55:00,
2013-02-21 07:08:00,13.7,11.0,25.04,NE,42,1.0,2.0,89,0.00,,,0.00,weatherlink.com 1.10,2013-02-21 14:08:00,
2013-02-21 07:22:00,13.8,11.0,25.04,NE,46,1.0,5.0,89,0.00,,,0.00,weatherlink.com 1.10,2013-02-21 14:22:00,
2013-02-21 07:37:00,14.1,11.0,25.05,NE,39,2.0,3.0,88,0.00,,,0.00,weatherlink.com 1.10,2013-02-21 14:37:00,
2013-02-21 07:53:00,14.6,12.0,25.06,ENE,60,0.0,5.0,88,0.00,,,0.00,weatherlink.com 1.10,2013-02-21 14:53:00,
2013-02-21 08:08:00,15.2,12.0,25.07,ENE,75,2.0,4.0,87,0.00,,,0.00,weatherlink.com 1.10,2013-02-21 15:08:00,
2013-02-21 08:23:00,15.4,12.0,25.07,East,84,2.0,4.0,85,0.00,,,0.00,weatherlink.com 1.10,2013-02-21 15:23:00,
2013-02-21 08:38:00,15.9,12.0,25.07,ENE,70,2.0,3.0,84,0.00,,,0.00,weatherlink.com 1.10,2013-02-21 15:38:00,
2013-02-21 08:53:00,15.9,12.0,25.08,East,83,3.0,4.0,85,0.00,,,0.00,weatherlink.com 1.10,2013-02-21 15:53:00,
2013-02-21 09:08:00,16.4,12.0,25.08,ENE,77,4.0,6.0,83,0.00,,,0.00,weatherlink.com 1.10,2013-02-21 16:08:00,
2013-02-21 09:23:00,15.2,12.0,25.08,NE,51,0.0,5.0,85,0.00,,,0.00,weatherlink.com 1.10,2013-02-21 16:23:00,
2013-02-21 09:38:00,16.3,12.0,25.08,ESE,105,1.0,3.0,84,0.00,,,0.00,weatherlink.com 1.10,2013-02-21 16:38:00,
2013-02-21 09:53:00,16.2,11.0,25.07,NNE,32,1.0,5.0,81,0.00,,,0.00,weatherlink.com 1.10,2013-02-21 16:53:00,
2013-02-21 10:08:00,16.2,12.0,25.07,NE,51,2.0,4.0,83,0.00,,,0.00,weatherlink.com 1.10,2013-02-21 17:08:00,
2013-02-21 10:23:00,16.2,11.0,25.07,North,360,1.0,3.0,81,0.00,,,0.00,weatherlink.com 1.10,2013-02-21 17:23:00,
2013-02-21 10:38:00,16.7,12.0,25.07,NE,42,2.0,4.0,80,0.00,,,0.00,weatherlink.com 1.10,2013-02-21 17:38:00,
2013-02-21 10:53:00,17.1,12.0,25.07,NE,49,4.0,4.0,79,0.00,,,0.00,weatherlink.com 1.10,2013-02-21 17:53:00,
2013-02-21 11:08:00,17.2,11.0,25.07,NE,35,3.0,5.0,78,0.00,,,0.00,weatherlink.com 1.10,2013-02-21 18:08:00,
2013-02-21 11:23:00,17.3,12.0,25.07,NE,36,5.0,6.0,79,0.00,,,0.00,weatherlink.com 1.10,2013-02-21 18:23:00,
2013-02-21 11:38:00,18.1,13.0,25.05,NNE,32,6.0,8.0,79,0.00,,,0.00,weatherlink.com 1.10,2013-02-21 18:38:00,
2013-02-21 11:53:00,19.1,14.0,25.05,NNE,20,5.0,7.0,79,0.00,,,0.00,weatherlink.com 1.10,2013-02-21 18:53:00,
2013-02-21 12:08:00,19.2,14.0,25.05,North,349,5.0,8.0,80,0.00,,,0.00,weatherlink.com 1.10,2013-02-21 19:08:00,
2013-02-21 12:23:00,19.2,14.0,25.04,NE,34,7.0,11.0,79,0.00,,,0.00,weatherlink.com 1.10,2013-02-21 19:23:00,
2013-02-21 12:38:00,19.2,14.0,25.04,NNE,30,8.0,12.0,80,0.00,,,0.00,weatherlink.com 1.10,2013-02-21 19:38:00,
2013-02-21 12:53:00,20.0,15.0,25.04,NNE,29,11.0,12.0,80,0.00,,,0.00,weatherlink.com 1.10,2013-02-21 19:53:00,
2013-02-21 13:08:00,19.9,14.0,25.03,NNW,338,6.0,13.0,78,0.00,,,0.00,weatherlink.com 1.10,2013-02-21 20:08:00,
2013-02-21 13:23:00,19.9,14.0,25.03,North,352,7.0,14.0,78,0.00,,,0.00,weatherlink.com 1.10,2013-02-21 20:23:00,
2013-02-21 13:38:00,20.4,15.0,25.02,NW,317,5.0,13.0,78,0.00,,,0.00,weatherlink.com 1.10,2013-02-21 20:38:00,
2013-02-21 13:53:00,20.8,15.0,25.02,NNE,25,8.0,14.0,79,0.00,,,0.00,weatherlink.com 1.10,2013-02-21 20:53:00,
2013-02-21 14:08:00,21.1,15.0,25.03,NNW,339,7.0,13.0,78,0.00,,,0.00,weatherlink.com 1.10,2013-02-21 21:08:00,
2013-02-21 14:23:00,21.2,15.0,25.03,NNW,340,7.0,12.0,78,0.00,,,0.00,weatherlink.com 1.10,2013-02-21 21:23:00,
2013-02-21 14:38:00,21.2,15.0,25.03,NNW,344,9.0,14.0,77,0.00,,,0.00,weatherlink.com 1.10,2013-02-21 21:38:00,
2013-02-21 14:53:00,21.0,15.0,25.03,NNE,29,9.0,15.0,78,0.00,,,0.00,weatherlink.com 1.10,2013-02-21 21:53:00,
2013-02-21 15:08:00,20.5,14.0,25.04,North,358,11.0,15.0,77,0.00,,,0.00,weatherlink.com 1.10,2013-02-21 22:08:00,
2013-02-21 15:23:00,20.2,15.0,25.04,NNW,344,12.0,15.0,79,0.00,,,0.00,weatherlink.com 1.10,2013-02-21 22:23:00,
2013-02-21 15:38:00,20.1,15.0,25.05,NW,317,6.0,15.0,80,0.00,,,0.00,weatherlink.com 1.10,2013-02-21 22:38:00,
2013-02-21 15:53:00,19.8,15.0,25.05,NNE,29,8.0,14.0,80,0.00,,,0.00,weatherlink.com 1.10,2013-02-21 22:53:00,
2013-02-21 16:08:00,19.6,15.0,25.05,NNE,33,7.0,13.0,81,0.00,,,0.00,weatherlink.com 1.10,2013-02-21 23:08:00,
2013-02-21 16:23:00,19.5,15.0,25.05,NNE,25,10.0,14.0,82,0.00,,,0.00,weatherlink.com 1.10,2013-02-21 23:23:00,
2013-02-21 16:38:00,19.5,15.0,25.05,NNW,333,3.0,13.0,82,0.00,,,0.00,weatherlink.com 1.10,2013-02-21 23:38:00,
2013-02-21 16:53:00,19.6,15.0,25.05,NE,43,5.0,10.0,82,0.00,,,0.00,weatherlink.com 1.10,2013-02-21 23:53:00,
2013-02-21 17:08:00,19.6,15.0,25.05,NNE,15,5.0,9.0,82,0.00,,,0.00,weatherlink.com 1.10,2013-02-22 00:08:00,
2013-02-21 17:38:00,19.3,15.0,25.06,NE,34,8.0,8.0,83,0.00,,,0.00,weatherlink.com 1.10,2013-02-22 00:38:00,
2013-02-21 17:53:00,19.1,15.0,25.06,NNE,25,6.0,8.0,85,0.00,,,0.00,weatherlink.com 1.10,2013-02-22 00:53:00,
2013-02-21 18:08:00,19.0,15.0,25.06,NNE,18,5.0,7.0,85,0.00,,,0.00,weatherlink.com 1.10,2013-02-22 01:08:00,
2013-02-21 18:23:00,18.9,15.0,25.07,NNE,19,3.0,6.0,86,0.00,,,0.00,weatherlink.com 1.10,2013-02-22 01:23:00,
2013-02-21 18:38:00,18.9,16.0,25.07,North,349,2.0,4.0,87,0.00,,,0.00,weatherlink.com 1.10,2013-02-22 01:38:00,
2013-02-21 18:53:00,18.9,16.0,25.08,NNW,336,4.0,5.0,88,0.00,,,0.00,weatherlink.com 1.10,2013-02-22 01:53:00,
2013-02-21 19:08:00,19.1,16.0,25.08,North,3,6.0,7.0,88,0.00,,,0.00,weatherlink.com 1.10,2013-02-22 02:08:00,
2013-02-21 19:23:00,19.1,16.0,25.08,NNE,33,5.0,8.0,88,0.00,,,0.00,weatherlink.com 1.10,2013-02-22 02:23:00,
2013-02-21 19:39:00,19.2,16.0,25.08,NNE,26,6.0,7.0,88,0.00,,,0.00,weatherlink.com 1.10,2013-02-22 02:39:00,
2013-02-21 19:54:00,19.0,16.0,25.08,NNE,33,4.0,6.0,88,0.00,,,0.00,weatherlink.com 1.10,2013-02-22 02:54:00,
2013-02-21 20:09:00,18.4,16.0,25.08,NNW,340,3.0,5.0,88,0.00,,,0.00,weatherlink.com 1.10,2013-02-22 03:09:00,
2013-02-21 20:24:00,17.9,15.0,25.09,NW,318,3.0,4.0,89,0.00,,,0.00,weatherlink.com 1.10,2013-02-22 03:24:00,
2013-02-21 20:39:00,17.3,15.0,25.09,NW,316,2.0,5.0,89,0.00,,,0.00,weatherlink.com 1.10,2013-02-22 03:39:00,
2013-02-21 20:54:00,16.8,14.0,25.09,NW,321,2.0,4.0,89,0.00,,,0.00,weatherlink.com 1.10,2013-02-22 03:54:00,
2013-02-21 21:09:00,16.8,14.0,25.09,West,275,1.0,4.0,89,0.00,,,0.00,weatherlink.com 1.10,2013-02-22 04:09:00,
2013-02-21 21:24:00,16.8,14.0,25.09,NNW,327,2.0,3.0,88,0.00,,,0.00,weatherlink.com 1.10,2013-02-22 04:24:00,
2013-02-21 21:39:00,16.4,14.0,25.09,NW,317,2.0,4.0,89,0.00,,,0.00,weatherlink.com 1.10,2013-02-22 04:39:00,
2013-02-21 21:54:00,16.5,14.0,25.08,NNW,328,2.0,4.0,89,0.00,,,0.00,weatherlink.com 1.10,2013-02-22 04:54:00,
2013-02-21 22:09:00,17.0,14.0,25.08,WNW,297,2.0,4.0,89,0.00,,,0.00,weatherlink.com 1.10,2013-02-22 05:09:00,
2013-02-21 22:24:00,17.2,15.0,25.08,WNW,300,1.0,4.0,89,0.00,,,0.00,weatherlink.com 1.10,2013-02-22 05:24:00,
2013-02-21 22:39:00,17.8,15.0,25.08,WNW,284,3.0,6.0,89,0.00,,,0.00,weatherlink.com 1.10,2013-02-22 05:39:00,
2013-02-21 22:54:00,18.1,16.0,25.08,NW,310,3.0,9.0,90,0.00,,,0.00,weatherlink.com 1.10,2013-02-22 05:54:00,
2013-02-21 23:09:00,18.2,16.0,25.08,NW,314,5.0,6.0,89,0.00,,,0.00,weatherlink.com 1.10,2013-02-22 06:09:00,
2013-02-21 23:24:00,18.2,16.0,25.08,NW,323,1.0,3.0,89,0.00,,,0.00,weatherlink.com 1.10,2013-02-22 06:24:00,
2013-02-21 23:39:00,19.0,16.0,25.08,NNW,330,2.0,4.0,89,0.00,,,0.00,weatherlink.com 1.10,2013-02-22 06:39:00,
2013-02-21 23:54:00,19.4,16.0,25.07,NNE,29,3.0,4.0,88,0.00,,,0.00,weatherlink.com 1.10,2013-02-22 06:54:00,